This demonstration page uses our WeatherBlox Daily Observations layout. Learn more.

Left ArrowRight Arrow

36.17497, -115.13722

Hourly Observations for February 3, 2020

Temp ( °F °C ) Dew Point ( °F °C ) Humidity (%) Winds ( mph kmh ) Pressure ( in mb ) Visibility ( mi km ) Precip ( " mm )
12:53 am 00:53 Partly Cloudy 51 10.6 7 -13.9 17 17 NW 28 44 29.68 1005 10 16.0934 0 0
1:53 am 01:53 Cloudy 49 9.4 10 -12.2 21 21 NW 30 48 29.71 1006 10 16.0934 0 0
2:53 am 02:53 Cloudy 45 7.2 14 -10 29 29 NW 33 54 29.75 1007 10 16.0934 0 0
3:53 am 03:53 Mostly Clear 43 6.1 13 -10.6 29 29 NW 36 57 29.78 1009 10 16.0934 0 0
4:53 am 04:53 Clear 42 5.6 12 -11.1 29 29 NW 25 41 29.83 1010 10 16.0934 0 0
5:53 am 05:53 Clear 41 5 11 -11.7 29 29 NW 22 35 29.85 1011 10 16.0934 0 0
6:53 am 06:53 Sunny 40 4.4 10 -12.2 29 29 NW 16 26 29.91 1013 10 16.0934 0 0
7:53 am 07:53 Sunny 41 5 1 -17.2 18 18 NNW 21 33 29.92 1013 10 16.0934 0 0
8:53 am 08:53 Sunny 42 5.6 1 -17.2 18 18 NNW 24 39 29.93 1014 10 16.0934 0 0
9:53 am 09:53 Sunny 43 6.1 0 -17.8 16 16 NW 22 35 29.96 1015 10 16.0934 0 0
10:53 am 10:53 Sunny 45 7.2 1 -17.2 16 16 NNW 16 26 29.97 1015 10 16.0934 0 0
11:53 am 11:53 Sunny 46 7.8 0 -17.8 14 14 NNW 21 33 29.95 1014 10 16.0934 0 0
12:53 pm 12:53 Sunny 46 7.8 -2 -18.9 13 13 NNW 23 37 29.94 1014 10 16.0934 0 0
1:53 pm 13:53 Partly Cloudy 46 7.8 -5 -20.6 11 11 NNW 23 37 29.93 1014 10 16.0934 0 0
2:53 pm 14:53 Sunny 47 8.3 -3 -19.4 12 12 NW 15 24 29.94 1014 10 16.0934 0 0
3:53 pm 15:53 Sunny 46 7.8 -11 -23.9 8 8 NW 28 44 29.96 1015 10 16.0934 0 0
4:53 pm 16:53 Sunny 44 6.7 -8 -22.2 11 11 NNW 24 39 29.99 1016 10 16.0934 0 0
5:53 pm 17:53 Clear 43 6.1 -5 -20.6 13 13 N 15 24 30.02 1017 10 16.0934 0 0
6:53 pm 18:53 Clear 41 5 -3 -19.4 15 15 N 13 20 30.06 1018 10 16.0934 0 0
7:53 pm 19:53 Clear 40 4.4 0 -17.8 18 18 NNW 13 20 30.08 1019 10 16.0934 0 0
8:53 pm 20:53 Clear 38 3.3 1 -17.2 21 21 NNW 10 17 30.1 1019 10 16.0934 0 0
9:53 pm 21:53 Clear 38 3.3 2 -16.7 22 22 NW 15 24 30.11 1020 10 16.0934 0 0
10:53 pm 22:53 Clear 38 3.3 2 -16.7 22 22 NW 17 28 30.12 1020 10 16.0934 0 0
11:53 pm 23:53 Clear 38 3.3 2 -16.7 22 22 NW 18 30 30.13 1020 10 16.0934 0 0

Powered by AerisWeather